Time,TemperatureF,DewpointF,PressureIn,WindDirection,WindDirectionDegrees,WindSpeedMPH,WindSpeedGustMPH,Humidity,HourlyPrecipIn,Conditions,Clouds,dailyrainin,SoftwareType,DateUTC
2013-02-14 00:02:00,60.2,55.0,29.91,West,274,0.0,5.0,83,0.03,,,0.01,VWS V14.01,2013-02-14 05:02:00,
2013-02-14 00:03:00,60.1,54.9,29.90,West,274,2.0,5.0,83,0.03,,,0.01,VWS V14.01,2013-02-14 05:03:00,
2013-02-14 00:08:00,59.7,54.9,29.91,West,274,2.0,2.0,84,0.03,,,0.01,VWS V14.01,2013-02-14 05:08:00,
2013-02-14 00:13:00,59.3,55.1,29.92,WNW,292,1.0,3.0,86,0.03,,,0.01,VWS V14.01,2013-02-14 05:13:00,
2013-02-14 00:18:00,59.1,54.9,29.92,WSW,253,1.0,3.0,86,0.04,,,0.02,VWS V14.01,2013-02-14 05:18:00,
2013-02-14 00:23:00,59.0,55.1,29.92,West,281,0.0,6.0,87,0.05,,,0.03,VWS V14.01,2013-02-14 05:23:00,
2013-02-14 00:28:00,58.8,55.6,29.92,WNW,285,0.0,2.0,89,0.06,,,0.04,VWS V14.01,2013-02-14 05:28:00,
2013-02-14 00:33:00,58.7,55.5,29.93,WNW,285,0.0,1.0,89,0.06,,,0.04,VWS V14.01,2013-02-14 05:33:00,
2013-02-14 00:38:00,58.7,55.8,29.92,WSW,247,0.0,4.0,90,0.06,,,0.04,VWS V14.01,2013-02-14 05:38:00,
2013-02-14 00:43:00,58.7,55.8,29.92,West,271,3.0,3.0,90,0.06,,,0.04,VWS V14.01,2013-02-14 05:43:00,
2013-02-14 00:48:00,58.7,56.1,29.92,SW,218,0.0,3.0,91,0.06,,,0.04,VWS V14.01,2013-02-14 05:48:00,
2013-02-14 00:53:00,58.7,56.1,29.92,SW,233,2.0,5.0,91,0.05,,,0.04,VWS V14.01,2013-02-14 05:53:00,
2013-02-14 00:58:00,58.9,56.0,29.91,SSW,205,0.0,4.0,90,0.04,,,0.04,VWS V14.01,2013-02-14 05:58:00,
2013-02-14 01:03:00,59.1,55.9,29.91,South,189,0.0,3.0,89,0.04,,,0.04,VWS V14.01,2013-02-14 06:03:00,
2013-02-14 01:08:00,59.2,56.0,29.91,South,189,0.0,0.0,89,0.03,,,0.04,VWS V14.01,2013-02-14 06:08:00,
2013-02-14 01:13:00,59.1,55.9,29.92,SW,218,2.0,4.0,89,0.03,,,0.04,VWS V14.01,2013-02-14 06:13:00,
2013-02-14 01:18:00,59.2,56.0,29.93,SW,234,3.0,6.0,89,0.03,,,0.04,VWS V14.01,2013-02-14 06:18:00,
2013-02-14 01:23:00,59.4,55.8,29.93,NW,317,0.0,7.0,88,0.02,,,0.04,VWS V14.01,2013-02-14 06:23:00,
2013-02-14 01:28:00,59.3,55.8,29.93,ENE,72,0.0,5.0,88,0.01,,,0.04,VWS V14.01,2013-02-14 06:28:00,
2013-02-14 01:33:00,59.0,55.5,29.93,SW,226,0.0,3.0,88,0.00,,,0.04,VWS V14.01,2013-02-14 06:33:00,
2013-02-14 01:38:00,58.7,55.5,29.93,West,278,0.0,5.0,89,0.00,,,0.04,VWS V14.01,2013-02-14 06:38:00,
2013-02-14 01:43:00,58.6,55.4,29.93,NW,310,0.0,3.0,89,0.00,,,0.04,VWS V14.01,2013-02-14 06:43:00,
2013-02-14 01:48:00,58.4,55.2,29.93,WSW,257,0.0,5.0,89,0.00,,,0.04,VWS V14.01,2013-02-14 06:48:00,
2013-02-14 01:53:00,58.2,55.0,29.93,NNW,337,0.0,2.0,89,0.00,,,0.04,VWS V14.01,2013-02-14 06:53:00,
2013-02-14 01:58:00,57.9,54.4,29.92,SW,224,1.0,4.0,88,0.00,,,0.04,VWS V14.01,2013-02-14 06:58:00,
2013-02-14 02:03:00,57.6,53.8,29.92,NE,54,0.0,4.0,87,0.00,,,0.04,VWS V14.01,2013-02-14 07:03:00,
2013-02-14 02:08:00,57.4,53.2,29.93,SW,233,0.0,3.0,86,0.00,,,0.04,VWS V14.01,2013-02-14 07:08:00,
2013-02-14 02:13:00,57.3,53.2,29.93,WNW,289,0.0,2.0,86,0.00,,,0.04,VWS V14.01,2013-02-14 07:13:00,
2013-02-14 02:18:00,57.2,53.1,29.94,WSW,252,0.0,5.0,86,0.00,,,0.04,VWS V14.01,2013-02-14 07:18:00,
2013-02-14 02:23:00,57.1,53.0,29.92,West,267,0.0,3.0,86,0.00,,,0.04,VWS V14.01,2013-02-14 07:23:00,
2013-02-14 02:28:00,57.0,52.9,29.93,West,265,0.0,2.0,86,0.00,,,0.04,VWS V14.01,2013-02-14 07:28:00,
2013-02-14 02:33:00,56.9,52.4,29.94,WNW,300,0.0,4.0,85,0.00,,,0.04,VWS V14.01,2013-02-14 07:33:00,
2013-02-14 02:38:00,56.9,52.4,29.95,SSW,212,0.0,4.0,85,0.00,,,0.04,VWS V14.01,2013-02-14 07:38:00,
2013-02-14 02:43:00,56.8,52.3,29.94,West,272,0.0,7.0,85,0.00,,,0.04,VWS V14.01,2013-02-14 07:43:00,
2013-02-14 02:48:00,56.8,52.7,29.94,West,260,1.0,3.0,86,0.00,,,0.04,VWS V14.01,2013-02-14 07:48:00,
2013-02-14 02:53:00,56.7,52.2,29.94,West,269,0.0,5.0,85,0.00,,,0.04,VWS V14.01,2013-02-14 07:53:00,
2013-02-14 02:58:00,56.6,52.5,29.94,WSW,254,0.0,4.0,86,0.00,,,0.04,VWS V14.01,2013-02-14 07:58:00,
2013-02-14 03:06:00,56.6,52.5,29.94,WNW,283,1.0,3.0,86,0.00,,,0.04,VWS V14.01,2013-02-14 08:06:00,
2013-02-14 03:12:00,56.5,52.4,29.94,WNW,283,0.0,1.0,86,0.00,,,0.04,VWS V14.01,2013-02-14 08:12:00,
2013-02-14 03:18:00,56.4,52.3,29.94,NNW,344,4.0,5.0,86,0.00,,,0.04,VWS V14.01,2013-02-14 08:18:00,
2013-02-14 03:23:00,56.3,52.2,29.94,SSW,195,2.0,7.0,86,0.00,,,0.04,VWS V14.01,2013-02-14 08:23:00,
2013-02-14 03:28:00,56.2,51.8,29.93,NNE,16,1.0,5.0,85,0.00,,,0.04,VWS V14.01,2013-02-14 08:28:00,
2013-02-14 03:33:00,56.1,51.7,29.93,NNW,348,0.0,5.0,85,0.00,,,0.04,VWS V14.01,2013-02-14 08:33:00,
2013-02-14 03:38:00,56.0,51.2,29.94,West,260,0.0,4.0,84,0.00,,,0.04,VWS V14.01,2013-02-14 08:38:00,
2013-02-14 03:43:00,55.8,51.0,29.93,NNW,335,0.0,4.0,84,0.00,,,0.04,VWS V14.01,2013-02-14 08:43:00,
2013-02-14 03:48:00,55.7,50.6,29.93,NNW,347,0.0,4.0,83,0.00,,,0.04,VWS V14.01,2013-02-14 08:48:00,
2013-02-14 03:53:00,55.6,50.5,29.93,NNW,347,0.0,1.0,83,0.00,,,0.04,VWS V14.01,2013-02-14 08:53:00,
2013-02-14 03:58:00,55.6,50.8,29.93,NNW,341,0.0,1.0,84,0.00,,,0.04,VWS V14.01,2013-02-14 08:58:00,
2013-02-14 04:05:00,55.5,50.4,29.94,North,10,0.0,1.0,83,0.00,,,0.04,VWS V14.01,2013-02-14 09:05:00,
2013-02-14 04:11:00,55.4,50.0,29.94,WSW,239,2.0,2.0,82,0.00,,,0.04,VWS V14.01,2013-02-14 09:11:00,
2013-02-14 04:17:00,55.3,49.9,29.94,WSW,246,0.0,2.0,82,0.00,,,0.04,VWS V14.01,2013-02-14 09:17:00,
2013-02-14 04:23:00,55.3,49.6,29.94,WSW,246,0.0,2.0,81,0.00,,,0.04,VWS V14.01,2013-02-14 09:23:00,
2013-02-14 04:28:00,55.2,49.2,29.95,WSW,250,0.0,2.0,80,0.00,,,0.04,VWS V14.01,2013-02-14 09:28:00,
2013-02-14 04:35:00,55.1,49.0,29.94,West,262,0.0,1.0,80,0.00,,,0.04,VWS V14.01,2013-02-14 09:35:00,
2013-02-14 04:41:00,55.1,49.0,29.94,West,262,0.0,1.0,80,0.00,,,0.04,VWS V14.01,2013-02-14 09:41:00,
2013-02-14 04:47:00,55.1,49.0,29.95,West,281,0.0,2.0,80,0.00,,,0.04,VWS V14.01,2013-02-14 09:47:00,
2013-02-14 04:53:00,55.0,48.6,29.97,North,354,1.0,5.0,79,0.00,,,0.04,VWS V14.01,2013-02-14 09:53:00,
2013-02-14 04:58:00,55.0,49.0,29.98,West,260,0.0,5.0,80,0.00,,,0.04,VWS V14.01,2013-02-14 09:58:00,
2013-02-14 05:03:00,54.9,48.5,29.98,WSW,258,0.0,3.0,79,0.00,,,0.04,VWS V14.01,2013-02-14 10:03:00,
2013-02-14 05:08:00,54.8,48.4,29.97,WSW,240,0.0,4.0,79,0.00,,,0.04,VWS V14.01,2013-02-14 10:08:00,
2013-02-14 05:13:00,54.7,48.3,29.96,North,9,0.0,5.0,79,0.00,,,0.04,VWS V14.01,2013-02-14 10:13:00,
2013-02-14 05:18:00,54.5,48.1,29.95,North,10,0.0,1.0,79,0.00,,,0.04,VWS V14.01,2013-02-14 10:18:00,
2013-02-14 05:23:00,54.4,48.0,29.95,North,4,0.0,6.0,79,0.00,,,0.04,VWS V14.01,2013-02-14 10:23:00,
2013-02-14 05:28:00,54.3,48.3,29.96,NNW,346,0.0,2.0,80,0.00,,,0.04,VWS V14.01,2013-02-14 10:28:00,
2013-02-14 05:33:00,54.2,48.2,29.96,WNW,297,0.0,4.0,80,0.00,,,0.04,VWS V14.01,2013-02-14 10:33:00,
2013-02-14 05:38:00,54.1,48.1,29.96,North,354,0.0,3.0,80,0.00,,,0.04,VWS V14.01,2013-02-14 10:38:00,
2013-02-14 05:43:00,54.1,48.1,29.96,North,354,0.0,1.0,80,0.00,,,0.04,VWS V14.01,2013-02-14 10:43:00,
2013-02-14 05:48:00,54.0,48.0,29.95,NE,52,0.0,1.0,80,0.00,,,0.04,VWS V14.01,2013-02-14 10:48:00,
2013-02-14 05:53:00,54.0,48.0,29.97,NE,51,0.0,1.0,80,0.00,,,0.04,VWS V14.01,2013-02-14 10:53:00,
2013-02-14 05:59:00,53.9,47.9,29.98,SW,219,0.0,1.0,80,0.00,,,0.04,VWS V14.01,2013-02-14 10:59:00,
2013-02-14 06:05:00,53.8,48.1,29.97,West,262,0.0,1.0,81,0.00,,,0.04,VWS V14.01,2013-02-14 11:05:00,
2013-02-14 06:11:00,53.6,47.9,29.98,North,359,0.0,3.0,81,0.00,,,0.04,VWS V14.01,2013-02-14 11:11:00,
2013-02-14 06:17:00,53.3,48.3,29.99,North,354,0.0,7.0,83,0.01,,,0.05,VWS V14.01,2013-02-14 11:17:00,
2013-02-14 06:23:00,52.9,48.2,29.98,North,350,0.0,3.0,84,0.02,,,0.06,VWS V14.01,2013-02-14 11:23:00,
2013-02-14 06:28:00,52.6,48.2,29.98,NNW,343,0.0,2.0,85,0.03,,,0.07,VWS V14.01,2013-02-14 11:28:00,
2013-02-14 06:33:00,52.4,48.3,29.98,North,354,0.0,1.0,86,0.03,,,0.07,VWS V14.01,2013-02-14 11:33:00,
2013-02-14 06:38:00,52.1,48.4,29.98,NNW,331,0.0,2.0,87,0.03,,,0.07,VWS V14.01,2013-02-14 11:38:00,
2013-02-14 06:43:00,52.0,48.3,29.99,NNW,330,0.0,0.0,87,0.03,,,0.07,VWS V14.01,2013-02-14 11:43:00,
2013-02-14 06:48:00,51.9,48.5,29.98,NNW,330,0.0,0.0,88,0.03,,,0.07,VWS V14.01,2013-02-14 11:48:00,
2013-02-14 06:53:00,51.9,48.5,29.98,NNE,14,0.0,3.0,88,0.03,,,0.07,VWS V14.01,2013-02-14 11:53:00,
2013-02-14 06:58:00,51.9,48.5,29.98,NE,41,0.0,1.0,88,0.03,,,0.07,VWS V14.01,2013-02-14 11:58:00,
2013-02-14 07:03:00,51.9,48.8,29.99,NE,42,0.0,1.0,89,0.03,,,0.07,VWS V14.01,2013-02-14 12:03:00,
2013-02-14 07:08:00,51.7,48.3,29.99,NE,42,0.0,0.0,88,0.03,,,0.07,VWS V14.01,2013-02-14 12:08:00,
2013-02-14 07:14:00,51.8,48.4,29.99,NNE,26,0.0,0.0,88,0.02,,,0.07,VWS V14.01,2013-02-14 12:14:00,
2013-02-14 07:20:00,51.7,48.3,29.99,North,4,3.0,3.0,88,0.01,,,0.07,VWS V14.01,2013-02-14 12:20:00,
2013-02-14 07:26:00,51.7,48.3,30.00,NE,44,0.0,2.0,88,0.01,,,0.07,VWS V14.01,2013-02-14 12:26:00,
2013-02-14 07:32:00,51.8,48.4,30.00,North,8,0.0,1.0,88,0.00,,,0.07,VWS V14.01,2013-02-14 12:32:00,
2013-02-14 07:38:00,51.8,48.7,30.00,NNE,16,0.0,1.0,89,0.02,,,0.09,VWS V14.01,2013-02-14 12:38:00,
2013-02-14 07:43:00,51.7,48.6,30.00,NNE,16,0.0,1.0,89,0.02,,,0.09,VWS V14.01,2013-02-14 12:43:00,
2013-02-14 07:48:00,51.6,48.8,30.01,NW,312,0.0,1.0,90,0.02,,,0.09,VWS V14.01,2013-02-14 12:48:00,
2013-02-14 07:53:00,51.5,48.7,30.00,NW,309,0.0,2.0,90,0.02,,,0.09,VWS V14.01,2013-02-14 12:53:00,
2013-02-14 07:58:00,51.4,48.6,30.01,WSW,258,0.0,1.0,90,0.02,,,0.09,VWS V14.01,2013-02-14 12:58:00,
2013-02-14 08:03:00,51.3,48.5,30.01,WNW,299,0.0,2.0,90,0.02,,,0.09,VWS V14.01,2013-02-14 13:03:00,
2013-02-14 08:08:00,51.3,48.5,30.01,North,359,0.0,4.0,90,0.02,,,0.09,VWS V14.01,2013-02-14 13:08:00,
2013-02-14 08:13:00,51.3,48.5,30.02,NW,304,0.0,1.0,90,0.02,,,0.09,VWS V14.01,2013-02-14 13:13:00,
2013-02-14 08:18:00,51.3,48.5,30.02,NE,55,0.0,1.0,90,0.03,,,0.10,VWS V14.01,2013-02-14 13:18:00,
2013-02-14 08:23:00,51.2,48.4,30.04,NNW,333,0.0,1.0,90,0.03,,,0.10,VWS V14.01,2013-02-14 13:23:00,
2013-02-14 08:28:00,51.2,48.7,30.05,West,275,0.0,4.0,91,0.04,,,0.11,VWS V14.01,2013-02-14 13:28:00,
2013-02-14 08:33:00,51.2,48.7,30.02,ESE,106,2.0,2.0,91,0.06,,,0.13,VWS V14.01,2013-02-14 13:33:00,
2013-02-14 08:38:00,51.0,48.5,30.01,ESE,105,0.0,2.0,91,0.06,,,0.13,VWS V14.01,2013-02-14 13:38:00,
2013-02-14 08:43:00,51.0,48.8,30.06,West,259,0.0,1.0,92,0.05,,,0.14,VWS V14.01,2013-02-14 13:43:00,
2013-02-14 08:48:00,51.1,49.2,30.06,West,259,0.0,1.0,93,0.05,,,0.14,VWS V14.01,2013-02-14 13:48:00,
2013-02-14 08:53:00,51.0,48.8,30.04,NE,39,0.0,2.0,92,0.05,,,0.14,VWS V14.01,2013-02-14 13:53:00,
2013-02-14 08:58:00,50.9,48.7,30.03,NE,45,0.0,3.0,92,0.05,,,0.14,VWS V14.01,2013-02-14 13:58:00,
2013-02-14 09:06:00,51.0,48.8,30.05,NE,45,0.0,0.0,92,0.05,,,0.14,VWS V14.01,2013-02-14 14:06:00,
2013-02-14 09:12:00,51.2,49.2,30.05,NNE,27,0.0,1.0,93,0.05,,,0.14,VWS V14.01,2013-02-14 14:12:00,
2013-02-14 09:18:00,51.2,49.0,30.05,WNW,291,1.0,4.0,92,0.05,,,0.14,VWS V14.01,2013-02-14 14:18:00,
2013-02-14 09:23:00,51.2,49.0,30.04,NW,326,0.0,3.0,92,0.04,,,0.14,VWS V14.01,2013-02-14 14:23:00,
2013-02-14 09:28:00,51.4,49.2,30.06,NE,39,0.0,3.0,92,0.04,,,0.14,VWS V14.01,2013-02-14 14:28:00,
2013-02-14 09:33:00,51.5,49.3,30.06,NNE,17,1.0,3.0,92,0.03,,,0.14,VWS V14.01,2013-02-14 14:33:00,
2013-02-14 09:38:00,51.4,49.2,30.07,WSW,255,0.0,4.0,92,0.01,,,0.14,VWS V14.01,2013-02-14 14:38:00,
2013-02-14 09:43:00,51.4,49.2,30.07,WSW,255,0.0,1.0,92,0.01,,,0.14,VWS V14.01,2013-02-14 14:43:00,
2013-02-14 09:48:00,51.4,48.6,30.07,NNW,348,0.0,4.0,90,0.00,,,0.14,VWS V14.01,2013-02-14 14:48:00,
2013-02-14 09:54:00,51.4,48.6,30.05,ENE,67,2.0,2.0,90,0.00,,,0.14,VWS V14.01,2013-02-14 14:54:00,
2013-02-14 10:00:00,51.3,48.2,30.04,ENE,67,0.0,0.0,89,0.00,,,0.14,VWS V14.01,2013-02-14 15:00:00,
2013-02-14 10:06:00,51.7,48.9,30.05,North,4,0.0,3.0,90,0.00,,,0.14,VWS V14.01,2013-02-14 15:06:00,
2013-02-14 10:12:00,51.9,49.4,30.06,North,354,2.0,5.0,91,0.00,,,0.14,VWS V14.01,2013-02-14 15:12:00,
2013-02-14 10:18:00,51.9,49.1,30.07,NNE,18,0.0,5.0,90,0.00,,,0.14,VWS V14.01,2013-02-14 15:18:00,
2013-02-14 10:23:00,51.9,49.1,30.06,NNE,12,0.0,3.0,90,0.00,,,0.14,VWS V14.01,2013-02-14 15:23:00,
2013-02-14 10:28:00,51.8,49.0,30.06,West,276,0.0,4.0,90,0.00,,,0.14,VWS V14.01,2013-02-14 15:28:00,
2013-02-14 10:33:00,51.8,49.0,30.06,West,278,0.0,1.0,90,0.00,,,0.14,VWS V14.01,2013-02-14 15:33:00,
2013-02-14 10:38:00,51.9,49.1,30.07,NNW,348,0.0,4.0,90,0.00,,,0.14,VWS V14.01,2013-02-14 15:38:00,
2013-02-14 10:43:00,51.9,49.4,30.08,West,276,0.0,4.0,91,0.00,,,0.14,VWS V14.01,2013-02-14 15:43:00,
2013-02-14 10:48:00,51.8,49.0,30.07,WNW,295,0.0,3.0,90,0.00,,,0.14,VWS V14.01,2013-02-14 15:48:00,
2013-02-14 10:53:00,51.8,49.0,30.07,NNE,23,2.0,3.0,90,0.01,,,0.15,VWS V14.01,2013-02-14 15:53:00,
2013-02-14 10:58:00,51.7,48.9,30.07,NNE,23,0.0,3.0,90,0.01,,,0.15,VWS V14.01,2013-02-14 15:58:00,
2013-02-14 11:03:00,51.7,49.2,30.07,North,354,0.0,2.0,91,0.01,,,0.15,VWS V14.01,2013-02-14 16:03:00,
2013-02-14 11:08:00,51.7,49.2,30.06,North,8,0.0,1.0,91,0.01,,,0.15,VWS V14.01,2013-02-14 16:08:00,
2013-02-14 11:13:00,51.9,49.4,30.07,North,8,0.0,1.0,91,0.01,,,0.15,VWS V14.01,2013-02-14 16:13:00,
2013-02-14 11:18:00,52.0,49.5,30.07,North,9,0.0,1.0,91,0.01,,,0.15,VWS V14.01,2013-02-14 16:18:00,
2013-02-14 11:23:00,52.1,49.8,30.07,NNW,343,0.0,1.0,92,0.01,,,0.15,VWS V14.01,2013-02-14 16:23:00,
2013-02-14 11:28:00,52.2,50.0,30.08,NW,306,0.0,1.0,92,0.01,,,0.15,VWS V14.01,2013-02-14 16:28:00,
2013-02-14 11:33:00,52.3,50.0,30.08,West,263,0.0,2.0,92,0.01,,,0.15,VWS V14.01,2013-02-14 16:33:00,
2013-02-14 11:38:00,52.2,50.0,30.08,WSW,249,0.0,2.0,92,0.01,,,0.15,VWS V14.01,2013-02-14 16:38:00,
2013-02-14 11:43:00,51.9,49.4,30.08,West,266,0.0,4.0,91,0.01,,,0.15,VWS V14.01,2013-02-14 16:43:00,
2013-02-14 11:48:00,51.9,49.4,30.06,ESE,112,0.0,1.0,91,0.01,,,0.15,VWS V14.01,2013-02-14 16:48:00,
2013-02-14 11:53:00,51.9,49.4,30.07,ESE,114,0.0,1.0,91,0.01,,,0.15,VWS V14.01,2013-02-14 16:53:00,
2013-02-14 12:00:00,51.9,49.1,30.05,NE,41,0.0,0.0,90,0.00,,,0.15,VWS V14.01,2013-02-14 17:00:00,
2013-02-14 12:06:00,52.2,49.4,30.04,NE,41,0.0,1.0,90,0.00,,,0.15,VWS V14.01,2013-02-14 17:06:00,
2013-02-14 12:12:00,52.3,49.2,30.03,ENE,60,2.0,2.0,89,0.00,,,0.15,VWS V14.01,2013-02-14 17:12:00,
2013-02-14 12:18:00,52.7,49.8,30.02,ENE,77,2.0,4.0,90,0.00,,,0.15,VWS V14.01,2013-02-14 17:18:00,
2013-02-14 12:23:00,52.7,49.5,30.03,NE,35,0.0,4.0,89,0.00,,,0.15,VWS V14.01,2013-02-14 17:23:00,
2013-02-14 12:28:00,53.0,49.8,30.04,East,97,0.0,5.0,89,0.00,,,0.15,VWS V14.01,2013-02-14 17:28:00,
2013-02-14 12:33:00,53.0,49.5,30.04,NW,323,2.0,5.0,88,0.00,,,0.15,VWS V14.01,2013-02-14 17:33:00,
2013-02-14 12:38:00,53.2,49.4,30.03,North,349,0.0,5.0,87,0.00,,,0.15,VWS V14.01,2013-02-14 17:38:00,
2013-02-14 12:43:00,53.5,49.4,30.03,ENE,77,0.0,3.0,86,0.00,,,0.15,VWS V14.01,2013-02-14 17:43:00,
2013-02-14 12:48:00,53.7,49.3,30.02,ENE,78,0.0,7.0,85,0.00,,,0.15,VWS V14.01,2013-02-14 17:48:00,
2013-02-14 12:53:00,53.6,49.2,30.02,North,8,2.0,4.0,85,0.00,,,0.15,VWS V14.01,2013-02-14 17:53:00,
2013-02-14 12:58:00,53.6,49.2,30.02,NNE,27,1.0,4.0,85,0.00,,,0.15,VWS V14.01,2013-02-14 17:58:00,
2013-02-14 13:03:00,53.7,49.3,30.01,East,87,2.0,5.0,85,0.00,,,0.15,VWS V14.01,2013-02-14 18:03:00,
2013-02-14 13:08:00,53.7,49.0,29.99,NE,40,4.0,5.0,84,0.00,,,0.15,VWS V14.01,2013-02-14 18:08:00,
2013-02-14 13:13:00,53.5,48.8,29.99,NE,51,0.0,5.0,84,0.01,,,0.16,VWS V14.01,2013-02-14 18:13:00,
2013-02-14 13:19:00,53.5,49.1,29.99,ESE,103,0.0,1.0,85,0.01,,,0.16,VWS V14.01,2013-02-14 18:19:00,
2013-02-14 13:25:00,53.7,49.3,30.02,NW,322,0.0,2.0,85,0.01,,,0.16,VWS V14.01,2013-02-14 18:25:00,
2013-02-14 13:31:00,54.2,49.8,30.00,NE,35,0.0,3.0,85,0.01,,,0.16,VWS V14.01,2013-02-14 18:31:00,
2013-02-14 13:37:00,54.4,49.3,30.00,ENE,71,0.0,4.0,83,0.01,,,0.16,VWS V14.01,2013-02-14 18:37:00,
2013-02-14 13:43:00,54.5,49.5,30.03,ENE,62,1.0,6.0,83,0.01,,,0.16,VWS V14.01,2013-02-14 18:43:00,
2013-02-14 13:48:00,54.4,49.3,30.02,East,79,0.0,4.0,83,0.01,,,0.16,VWS V14.01,2013-02-14 18:48:00,
2013-02-14 13:53:00,54.2,49.5,30.01,WNW,299,3.0,6.0,84,0.01,,,0.16,VWS V14.01,2013-02-14 18:53:00,
2013-02-14 13:58:00,53.8,48.8,30.01,North,8,3.0,6.0,83,0.01,,,0.16,VWS V14.01,2013-02-14 18:58:00,
2013-02-14 14:03:00,53.6,48.6,30.03,West,270,4.0,4.0,83,0.01,,,0.16,VWS V14.01,2013-02-14 19:03:00,
2013-02-14 14:08:00,53.4,48.4,30.03,NNE,24,0.0,5.0,83,0.01,,,0.16,VWS V14.01,2013-02-14 19:08:00,
2013-02-14 14:13:00,53.3,48.3,30.03,West,266,0.0,3.0,83,0.01,,,0.16,VWS V14.01,2013-02-14 19:13:00,
2013-02-14 14:18:00,53.4,48.7,30.04,West,279,0.0,4.0,84,0.00,,,0.16,VWS V14.01,2013-02-14 19:18:00,
2013-02-14 14:23:00,53.5,48.8,30.04,West,260,0.0,4.0,84,0.00,,,0.16,VWS V14.01,2013-02-14 19:23:00,
2013-02-14 14:28:00,53.5,48.8,30.04,NNE,19,0.0,4.0,84,0.00,,,0.16,VWS V14.01,2013-02-14 19:28:00,
2013-02-14 14:33:00,53.4,48.4,30.03,NNW,338,0.0,5.0,83,0.00,,,0.16,VWS V14.01,2013-02-14 19:33:00,
2013-02-14 14:38:00,53.3,48.3,30.03,NNE,18,0.0,5.0,83,0.00,,,0.16,VWS V14.01,2013-02-14 19:38:00,
2013-02-14 14:43:00,53.2,47.9,30.02,North,4,1.0,3.0,82,0.00,,,0.16,VWS V14.01,2013-02-14 19:43:00,
2013-02-14 14:48:00,53.2,48.2,30.01,North,4,0.0,2.0,83,0.00,,,0.16,VWS V14.01,2013-02-14 19:48:00,
2013-02-14 14:53:00,53.2,47.9,30.01,North,4,0.0,1.0,82,0.00,,,0.16,VWS V14.01,2013-02-14 19:53:00,
2013-02-14 14:58:00,53.1,47.4,30.00,North,349,0.0,3.0,81,0.00,,,0.16,VWS V14.01,2013-02-14 19:58:00,
2013-02-14 15:03:00,53.1,47.8,30.01,NW,322,4.0,4.0,82,0.00,,,0.16,VWS V14.01,2013-02-14 20:03:00,
2013-02-14 15:08:00,53.2,47.9,30.00,NNE,15,0.0,4.0,82,0.00,,,0.16,VWS V14.01,2013-02-14 20:08:00,
2013-02-14 15:13:00,53.2,47.9,30.00,North,354,0.0,1.0,82,0.00,,,0.16,VWS V14.01,2013-02-14 20:13:00,
2013-02-14 15:19:00,53.1,47.8,30.00,West,262,0.0,1.0,82,0.00,,,0.16,VWS V14.01,2013-02-14 20:19:00,
2013-02-14 15:25:00,53.1,47.8,30.00,NW,311,1.0,4.0,82,0.00,,,0.16,VWS V14.01,2013-02-14 20:25:00,
2013-02-14 15:31:00,53.0,47.7,30.02,NNE,23,0.0,3.0,82,0.00,,,0.16,VWS V14.01,2013-02-14 20:31:00,
2013-02-14 15:37:00,52.9,47.9,30.02,North,359,0.0,4.0,83,0.00,,,0.16,VWS V14.01,2013-02-14 20:37:00,
2013-02-14 15:43:00,52.7,47.7,30.02,ENE,61,1.0,4.0,83,0.00,,,0.16,VWS V14.01,2013-02-14 20:43:00,
2013-02-14 15:48:00,52.7,47.7,30.02,NE,34,0.0,4.0,83,0.00,,,0.16,VWS V14.01,2013-02-14 20:48:00,
2013-02-14 15:53:00,52.6,47.6,30.03,ENE,70,0.0,2.0,83,0.00,,,0.16,VWS V14.01,2013-02-14 20:53:00,
2013-02-14 15:58:00,52.7,48.0,30.03,NE,52,2.0,3.0,84,0.00,,,0.16,VWS V14.01,2013-02-14 20:58:00,
2013-02-14 16:04:00,52.6,47.9,30.02,NE,38,0.0,1.0,84,0.00,,,0.16,VWS V14.01,2013-02-14 21:04:00,
2013-02-14 16:10:00,52.7,48.0,30.03,WNW,286,0.0,2.0,84,0.00,,,0.16,VWS V14.01,2013-02-14 21:10:00,
2013-02-14 16:16:00,52.7,48.0,30.02,NNW,330,1.0,2.0,84,0.00,,,0.16,VWS V14.01,2013-02-14 21:16:00,
2013-02-14 16:22:00,52.7,48.0,30.02,NNE,16,0.0,2.0,84,0.00,,,0.16,VWS V14.01,2013-02-14 21:22:00,
2013-02-14 16:28:00,52.6,47.9,30.02,ENE,62,0.0,1.0,84,0.00,,,0.16,VWS V14.01,2013-02-14 21:28:00,
2013-02-14 16:33:00,52.6,47.6,30.03,ENE,62,0.0,1.0,83,0.00,,,0.16,VWS V14.01,2013-02-14 21:33:00,
2013-02-14 16:38:00,52.6,47.9,30.05,West,266,0.0,4.0,84,0.00,,,0.16,VWS V14.01,2013-02-14 21:38:00,
2013-02-14 16:43:00,52.6,47.9,30.04,West,274,0.0,3.0,84,0.00,,,0.16,VWS V14.01,2013-02-14 21:43:00,
2013-02-14 16:48:00,52.6,47.9,30.03,West,274,0.0,1.0,84,0.00,,,0.16,VWS V14.01,2013-02-14 21:48:00,
2013-02-14 16:53:00,52.7,48.0,30.03,West,274,0.0,1.0,84,0.00,,,0.16,VWS V14.01,2013-02-14 21:53:00,
2013-02-14 16:58:00,52.6,47.6,30.01,ESE,109,0.0,3.0,83,0.00,,,0.16,VWS V14.01,2013-02-14 21:58:00,
2013-02-14 17:03:00,52.5,47.2,29.99,NE,51,0.0,1.0,82,0.00,,,0.16,VWS V14.01,2013-02-14 22:03:00,
2013-02-14 17:08:00,52.5,47.2,29.99,NE,51,0.0,2.0,82,0.00,,,0.16,VWS V14.01,2013-02-14 22:08:00,
2013-02-14 17:13:00,52.5,47.2,30.00,NE,52,0.0,1.0,82,0.00,,,0.16,VWS V14.01,2013-02-14 22:13:00,
2013-02-14 17:18:00,52.4,46.8,30.00,NE,51,0.0,1.0,81,0.00,,,0.16,VWS V14.01,2013-02-14 22:18:00,
2013-02-14 17:23:00,52.4,46.8,30.01,NE,52,0.0,1.0,81,0.00,,,0.16,VWS V14.01,2013-02-14 22:23:00,
2013-02-14 17:28:00,52.5,46.8,30.01,NE,51,0.0,0.0,81,0.00,,,0.16,VWS V14.01,2013-02-14 22:28:00,
2013-02-14 17:33:00,52.5,46.5,30.03,NE,51,0.0,1.0,80,0.00,,,0.16,VWS V14.01,2013-02-14 22:33:00,
2013-02-14 17:38:00,52.6,46.9,30.03,ENE,72,0.0,1.0,81,0.00,,,0.16,VWS V14.01,2013-02-14 22:38:00,
2013-02-14 17:43:00,52.6,46.9,30.03,ENE,72,0.0,1.0,81,0.00,,,0.16,VWS V14.01,2013-02-14 22:43:00,
2013-02-14 17:48:00,52.6,46.9,30.03,ENE,71,0.0,1.0,81,0.00,,,0.16,VWS V14.01,2013-02-14 22:48:00,
2013-02-14 17:53:00,52.5,47.2,30.05,ENE,71,0.0,0.0,82,0.00,,,0.16,VWS V14.01,2013-02-14 22:53:00,
2013-02-14 17:58:00,52.5,47.2,30.04,NNE,31,0.0,2.0,82,0.00,,,0.16,VWS V14.01,2013-02-14 22:58:00,
2013-02-14 18:03:00,52.5,47.5,30.03,NNE,31,0.0,1.0,83,0.00,,,0.16,VWS V14.01,2013-02-14 23:03:00,
2013-02-14 18:08:00,52.4,47.1,30.03,ENE,75,0.0,3.0,82,0.00,,,0.16,VWS V14.01,2013-02-14 23:08:00,
2013-02-14 18:13:00,52.4,47.4,30.03,ENE,76,0.0,1.0,83,0.00,,,0.16,VWS V14.01,2013-02-14 23:13:00,
2013-02-14 18:18:00,52.4,47.4,30.02,ENE,77,0.0,1.0,83,0.00,,,0.16,VWS V14.01,2013-02-14 23:18:00,
2013-02-14 18:23:00,52.3,47.0,30.02,ENE,75,0.0,1.0,82,0.00,,,0.16,VWS V14.01,2013-02-14 23:23:00,
2013-02-14 18:28:00,52.3,47.3,30.03,ENE,76,0.0,1.0,83,0.00,,,0.16,VWS V14.01,2013-02-14 23:28:00,
2013-02-14 18:33:00,52.3,47.0,30.01,ENE,76,0.0,1.0,82,0.00,,,0.16,VWS V14.01,2013-02-14 23:33:00,
2013-02-14 18:38:00,52.3,47.0,30.01,ENE,77,0.0,2.0,82,0.00,,,0.16,VWS V14.01,2013-02-14 23:38:00,
2013-02-14 18:43:00,52.3,47.0,30.02,ENE,76,0.0,0.0,82,0.00,,,0.16,VWS V14.01,2013-02-14 23:43:00,
2013-02-14 18:48:00,52.3,47.0,30.02,ENE,76,0.0,1.0,82,0.00,,,0.16,VWS V14.01,2013-02-14 23:48:00,
2013-02-14 18:53:00,52.3,47.0,30.03,ENE,76,0.0,0.0,82,0.00,,,0.16,VWS V14.01,2013-02-14 23:53:00,
2013-02-14 18:58:00,52.3,47.0,30.06,ENE,76,0.0,1.0,82,0.00,,,0.16,VWS V14.01,2013-02-14 23:58:00,
2013-02-14 19:03:00,52.3,47.3,30.05,ENE,76,0.0,0.0,83,0.00,,,0.16,VWS V14.01,2013-02-15 00:03:00,
2013-02-14 19:08:00,52.3,47.3,30.04,ENE,76,0.0,0.0,83,0.00,,,0.16,VWS V14.01,2013-02-15 00:08:00,
2013-02-14 19:13:00,52.4,47.4,30.03,ENE,76,0.0,1.0,83,0.00,,,0.16,VWS V14.01,2013-02-15 00:13:00,
2013-02-14 19:18:00,52.5,47.2,30.03,ENE,76,0.0,1.0,82,0.00,,,0.16,VWS V14.01,2013-02-15 00:18:00,
2013-02-14 19:23:00,52.5,47.2,30.05,ENE,75,0.0,2.0,82,0.00,,,0.16,VWS V14.01,2013-02-15 00:23:00,
2013-02-14 19:28:00,52.5,47.2,30.03,ENE,75,0.0,1.0,82,0.00,,,0.16,VWS V14.01,2013-02-15 00:28:00,
2013-02-14 19:33:00,52.5,47.2,29.98,East,89,2.0,3.0,82,0.00,,,0.16,VWS V14.01,2013-02-15 00:33:00,
2013-02-14 19:38:00,52.4,47.4,30.01,East,89,0.0,2.0,83,0.00,,,0.16,VWS V14.01,2013-02-15 00:38:00,
2013-02-14 19:43:00,52.3,47.6,30.00,ENE,76,2.0,2.0,84,0.00,,,0.16,VWS V14.01,2013-02-15 00:43:00,
2013-02-14 19:48:00,52.2,47.8,30.00,ENE,76,0.0,2.0,85,0.00,,,0.16,VWS V14.01,2013-02-15 00:48:00,
2013-02-14 19:53:00,52.1,47.7,30.00,NE,35,1.0,2.0,85,0.00,,,0.16,VWS V14.01,2013-02-15 00:53:00,
2013-02-14 19:58:00,52.1,47.7,30.02,NNW,339,0.0,3.0,85,0.00,,,0.16,VWS V14.01,2013-02-15 00:58:00,
2013-02-14 20:03:00,52.1,47.7,30.01,NNW,339,0.0,1.0,85,0.00,,,0.16,VWS V14.01,2013-02-15 01:03:00,
2013-02-14 20:08:00,52.0,47.6,30.04,NNW,339,0.0,0.0,85,0.00,,,0.16,VWS V14.01,2013-02-15 01:08:00,
2013-02-14 20:13:00,52.0,47.6,30.06,NNW,339,0.0,1.0,85,0.00,,,0.16,VWS V14.01,2013-02-15 01:13:00,
2013-02-14 20:20:00,52.0,47.6,30.07,NW,315,0.0,3.0,85,0.00,,,0.16,VWS V14.01,2013-02-15 01:20:00,
2013-02-14 20:26:00,52.0,47.6,30.07,West,261,0.0,3.0,85,0.00,,,0.16,VWS V14.01,2013-02-15 01:26:00,
2013-02-14 20:32:00,52.1,48.0,30.07,West,276,0.0,1.0,86,0.00,,,0.16,VWS V14.01,2013-02-15 01:32:00,
2013-02-14 20:38:00,52.0,47.6,30.06,West,273,0.0,4.0,85,0.00,,,0.16,VWS V14.01,2013-02-15 01:38:00,
2013-02-14 20:43:00,52.0,47.6,30.05,West,272,0.0,2.0,85,0.00,,,0.16,VWS V14.01,2013-02-15 01:43:00,
2013-02-14 20:48:00,52.0,48.0,30.05,East,86,0.0,3.0,86,0.00,,,0.16,VWS V14.01,2013-02-15 01:48:00,
2013-02-14 20:53:00,51.9,47.8,30.05,NW,314,0.0,3.0,86,0.00,,,0.16,VWS V14.01,2013-02-15 01:53:00,
2013-02-14 20:58:00,51.9,47.8,30.03,NW,313,0.0,1.0,86,0.00,,,0.16,VWS V14.01,2013-02-15 01:58:00,
2013-02-14 21:03:00,51.8,47.8,30.03,ENE,58,0.0,2.0,86,0.00,,,0.16,VWS V14.01,2013-02-15 02:03:00,
2013-02-14 21:08:00,51.8,47.8,30.05,North,350,0.0,2.0,86,0.00,,,0.16,VWS V14.01,2013-02-15 02:08:00,
2013-02-14 21:13:00,51.7,47.7,30.05,North,354,1.0,1.0,86,0.00,,,0.16,VWS V14.01,2013-02-15 02:13:00,
2013-02-14 21:18:00,51.7,47.7,30.06,North,354,0.0,1.0,86,0.00,,,0.16,VWS V14.01,2013-02-15 02:18:00,
2013-02-14 21:23:00,51.7,48.0,30.06,SE,134,0.0,1.0,87,0.00,,,0.16,VWS V14.01,2013-02-15 02:23:00,
2013-02-14 21:28:00,51.7,48.0,30.07,SW,231,0.0,2.0,87,0.00,,,0.16,VWS V14.01,2013-02-15 02:28:00,
2013-02-14 21:33:00,51.7,48.0,30.07,WSW,254,0.0,3.0,87,0.00,,,0.16,VWS V14.01,2013-02-15 02:33:00,
2013-02-14 21:38:00,51.6,48.2,30.07,WSW,243,0.0,3.0,88,0.00,,,0.16,VWS V14.01,2013-02-15 02:38:00,
2013-02-14 21:43:00,51.4,47.7,30.07,NW,306,3.0,5.0,87,0.00,,,0.16,VWS V14.01,2013-02-15 02:43:00,
2013-02-14 21:48:00,51.2,47.5,30.06,North,10,0.0,4.0,87,0.00,,,0.16,VWS V14.01,2013-02-15 02:48:00,
2013-02-14 21:53:00,51.1,47.4,30.06,NNE,17,0.0,3.0,87,0.00,,,0.16,VWS V14.01,2013-02-15 02:53:00,
2013-02-14 21:58:00,50.9,47.2,30.05,ESE,114,0.0,2.0,87,0.00,,,0.16,VWS V14.01,2013-02-15 02:58:00,
2013-02-14 22:03:00,50.7,46.7,30.04,NNW,347,0.0,4.0,86,0.00,,,0.16,VWS V14.01,2013-02-15 03:03:00,
2013-02-14 22:08:00,50.6,46.6,30.04,North,354,0.0,2.0,86,0.00,,,0.16,VWS V14.01,2013-02-15 03:08:00,
2013-02-14 22:13:00,50.5,46.2,30.04,NNE,16,0.0,5.0,85,0.00,,,0.16,VWS V14.01,2013-02-15 03:13:00,
2013-02-14 22:18:00,50.4,46.1,30.02,ENE,73,1.0,7.0,85,0.00,,,0.16,VWS V14.01,2013-02-15 03:18:00,
2013-02-14 22:23:00,50.4,46.1,30.03,ENE,63,0.0,3.0,85,0.00,,,0.16,VWS V14.01,2013-02-15 03:23:00,
2013-02-14 22:28:00,50.3,46.0,30.04,NNE,20,0.0,3.0,85,0.00,,,0.16,VWS V14.01,2013-02-15 03:28:00,
2013-02-14 22:33:00,50.1,45.8,30.04,NNE,20,0.0,2.0,85,0.00,,,0.16,VWS V14.01,2013-02-15 03:33:00,
2013-02-14 22:38:00,50.0,45.7,30.04,NNE,19,0.0,1.0,85,0.00,,,0.16,VWS V14.01,2013-02-15 03:38:00,
2013-02-14 22:43:00,50.0,45.4,30.05,WNW,293,0.0,4.0,84,0.00,,,0.16,VWS V14.01,2013-02-15 03:43:00,
2013-02-14 22:48:00,49.9,45.6,30.06,North,9,5.0,5.0,85,0.00,,,0.16,VWS V14.01,2013-02-15 03:48:00,
2013-02-14 22:53:00,49.9,45.6,30.05,NNW,332,0.0,5.0,85,0.00,,,0.16,VWS V14.01,2013-02-15 03:53:00,
2013-02-14 22:58:00,49.7,45.4,30.05,North,4,0.0,3.0,85,0.00,,,0.16,VWS V14.01,2013-02-15 03:58:00,
2013-02-14 23:03:00,49.6,45.3,30.05,NE,44,2.0,5.0,85,0.00,,,0.16,VWS V14.01,2013-02-15 04:03:00,
2013-02-14 23:08:00,49.4,45.1,30.06,North,4,0.0,4.0,85,0.00,,,0.16,VWS V14.01,2013-02-15 04:08:00,
2013-02-14 23:13:00,49.2,44.9,30.07,North,10,2.0,7.0,85,0.00,,,0.16,VWS V14.01,2013-02-15 04:13:00,
2013-02-14 23:18:00,49.1,44.8,30.07,NNW,345,0.0,7.0,85,0.00,,,0.16,VWS V14.01,2013-02-15 04:18:00,
2013-02-14 23:23:00,49.0,45.0,30.07,NNE,28,0.0,6.0,86,0.00,,,0.16,VWS V14.01,2013-02-15 04:23:00,
2013-02-14 23:30:00,48.8,44.8,30.07,WNW,290,0.0,0.0,86,0.00,,,0.16,VWS V14.01,2013-02-15 04:30:00,
2013-02-14 23:36:00,48.6,44.6,30.05,NNW,348,0.0,1.0,86,0.00,,,0.16,VWS V14.01,2013-02-15 04:36:00,
2013-02-14 23:42:00,48.5,44.5,30.07,NNW,333,1.0,2.0,86,0.00,,,0.16,VWS V14.01,2013-02-15 04:42:00,
2013-02-14 23:48:00,48.5,44.2,30.07,NE,38,0.0,2.0,85,0.00,,,0.16,VWS V14.01,2013-02-15 04:48:00,
2013-02-14 23:53:00,48.5,44.2,30.06,North,349,0.0,3.0,85,0.00,,,0.16,VWS V14.01,2013-02-15 04:53:00,
2013-02-14 23:58:00,48.5,44.2,30.06,NNW,330,2.0,3.0,85,0.00,,,0.00,VWS V14.01,2013-02-15 04:58:00,